www.pogodaiklimat.ru

Погода и климат >> Архив погоды >> Таиланд >> Дои Му Со Агромет


ПОГОДА в Дои Му Со Агромете

  • Прогноз погоды в Дои Му Со Агромете
  • Монитор погоды в Дои Му Со Агромете

АРХИВ ПОГОДЫ в Дои Му Со Агромете

Время (UTC), дата Ветер
(напр.,м/с)
 
Видим.   Явления Облачность Т
(С)
Тd
(С)
f
(%)
Тe
(С)
Тes
(С)
Комфортность P
(гПа)
Po
(гПа)
Тmin
(С)
Tmax
(С)
R
(мм)
R24
(мм)
S
(см)
09 10.09 Ю 4 700 м туман {дождь} 10/6 600 м
[Frnb Ac As]
+22.2 +21.4 95 +29 +30 очень
душно
1006.1 911.3 0.0
12 10.09 ЮЗ 5 500 м туман 10/6 300 м
[Frnb Ac As]
+20.1 +19.8 98 +24 +24 комфорт 1008.9 913.2 +22.9 0.7
15 10.09 З 6 <100 м туман ?/? +19.9 +19.4 97 +23 +23 комфорт 1011.5 915.5
18 10.09 З 4 4000 м дымка {туман} 10/6 600 м
[Frnb Ac As]
+20.0 +19.4 96 +23 +23 комфорт 1011.3 915.4
21 10.09 З 8 4000 м дымка 10/6 600 м
[Frnb Ac As]
+20.1 +19.1 94 +23 +23 комфорт 1010.3 914.4
00 11.09 ЮЗ 3 2000 м слаб. дождь 10/6 300 м
[Frnb Ac As]
+20.1 +19.3 95 +24 +24 комфорт 1012.3 916.3 +19.2 0.1
03 11.09 ЮЗ 5 3000 м слаб. дождь 10/6 300 м
[Frnb Ac As]
+21.2 +20.1 93 +26 +27 душно 1014.4 918.5 0.4
06 11.09 ЮЗ 5 7000 м слаб. дождь 10/8 300 м
[Frnb Ac As]
+21.7 +20.8 95 +28 +28 душно 1012.5 916.9 2
09 11.09 З 5 200 м слаб. дождь 10/10 300 м
[Frnb]
+20.5 +20.0 97 +25 +25 комфорт 1011.4 915.6 2
12 11.09 ЮЗ 6 600 м слаб. дождь {туман} 10/8 300 м
[Frnb Ac As]
+20.0 +19.5 97 +23 +23 комфорт 1011.6 915.6 +22.0 0.6
15 11.09 ЮЗ 6 1500 м слаб. дождь 10/6 300 м
[Frnb Ac As]
+20.0 +19.5 97 +23 +23 комфорт 1014.6 918.4 1
18 11.09 З 8 3000 м дымка {дождь, туман} 10/6 600 м
[Frnb Ac As]
+19.5 +18.9 96 +21 +21 комфорт 1013.7 917.4 0.1
21 11.09 ЮЗ 4 3000 м слаб. морось 10/6 300 м
[Frnb Ac As]
+19.4 +18.8 96 +22 +22 комфорт 1012.6 916.3 0.0
00 12.09 Ю 3 4000 м дымка 10/6 300 м
[Frnb Ac As]
+19.5 +18.7 95 +22 +22 комфорт 1013.9 917.5 +18.9 0.0
03 12.09 Ю 5 7000 м дымка 9/5 600 м
[Sc Ac As Cs]
+21.6 +19.2 86 +27 +29 душно 1014.7 918.9
06 12.09 ЮЗ 4 8000 м дымка 9/3 600 м
[Sc Ac As Cs]
+23.9 +20.2 80 +30 +35 очень
душно
1012.4 917.5
09 12.09 ЮЗ 9 9000 м дымка 8/3 600 м
[Sc Ac und Cs]
+24.8 +20.7 78 +31 +31 очень
душно
1009.1 914.8
12 12.09 ЮЗ 3 6000 м дымка 3/1 600 м
[Cb calv Ac und Cs]
+21.5 +19.1 86 +26 +26 душно 1010.9 915.5 +24.8
15 12.09 ЮЗ 4 4000 м дымка 9/5 600 м
[Sc Ac As Cs]
+21.0 +19.9 93 +26 +26 душно 1013.5 917.6
18 12.09 ЮЗ 4 900 м туман 10/6 600 м
[Frnb Ac As]
+20.5 +19.7 95 +25 +25 комфорт 1012.1 916.2
21 12.09 ЮЗ 5 100 м слаб. дождь {туман} ?/? +20.4 +19.9 97 +24 +24 комфорт 1011.0 915.2 0.3
00 13.09 ЮЗ 6 100 м слаб. морось {дождь, туман} ?/? +20.0 +19.7 98 +23 +23 комфорт 1012.4 916.3 +19.5 0.4
03 13.09 З 6 500 м слаб. морось 10/6 300 м
[Frnb Ac As]
+21.0 +20.2 95 +26 +27 душно 1013.2 917.4 0.3
06 13.09 ЮЗ 4 7000 м дымка {туман} 10/5 600 м
[Frnb Ac As]
+23.0 +20.9 88 +30 +32 очень
душно
1010.1 915.2 0.0
09 13.09 ЮЗ 8 8000 м дымка 9/5 600 м
[Sc Ac As Cs]
+23.5 +20.9 85 +29 +30 душно 1007.2 912.7
12 13.09 ЮЗ 6 6000 м дымка 9/4 600 м
[Sc Ac As Cs]
+22.1 +20.9 93 +29 +29 очень
душно
1008.3 913.3 +24.0
15 13.09 ЮЗ 3 900 м туман 10/6 600 м
[Frnb Ac As]
+21.4 +20.8 96 +27 +27 душно 1010.7 915.2
18 13.09 З 7 800 м туман 10/6 600 м
[Frnb Ac As]
+21.0 +20.4 96 +26 +26 душно 1009.5 914.1
21 13.09 З 3 500 м слаб. морось {туман} 10/6 600 м
[Frnb Ac As]
+21.0 +20.7 98 +27 +27 душно 1008.4 913.0 0.0
00 14.09 Ю 3 500 м туман 10/6 600 м
[Frnb Ac As]
+21.1 +20.5 96 +26 +26 душно 1009.1 913.7 +20.4 0.3
03 14.09 Ю 3 8000 м дымка {туман} 8/3 600 м
[Sc Ac und Cs]
+23.7 +21.7 89 +30 +35 очень
душно
1009.5 914.8
06 14.09 СЗ 6 8000 м дымка {туман} 8/3 600 м
[Cu med, cong Ac und Cs]
+27.4 +21.6 71 +35 +39 очень
душно
1006.6 913.3
09 14.09 С 6 8000 м дымка {дождь} 8/3 600 м
[Cb calv Ac und Cs]
+25.7 +20.2 72 +32 +33 очень
душно
1005.2 911.5 0.5
12 14.09 СВ 3 8000 м дымка {дождь} 6/1 1000 м
[Sc Ac und Cs]
+23.3 +22.1 93 +32 +32 очень
душно
1007.0 912.5 +28.3 0.5
15 14.09 штиль 0 4000 м дымка 6/1 1000 м
[Sc Ac lent Cs]
+20.9 +20.1 95 +25 +25 комфорт 1010.1 914.5
18 14.09 В 3 200 м туман ?/? +20.6 +20.1 97 +25 +25 комфорт 1009.5 913.9
21 14.09 З 3 400 м туман 10/3 600 м
[Sc As op]
+21.4 +20.9 97 +27 +27 душно 1008.1 912.8
00 15.09 ЮВ 3 700 м туман {дождь} 8/3 600 м
[Cb calv As op Cs]
+21.6 +21.1 97 +28 +28 очень
душно
1009.0 913.8 +19.6 0.3
03 15.09 СВ 5 6000 м дымка {дождь, туман} 8/4 600 м
[Cb calv Ac und Cs]
+23.5 +21.5 89 +30 +33 очень
душно
1009.3 914.6 2
06 15.09 СВ 7 9000 м дымка {дождь, туман} 4/3 600 м
[Cb calv Ac lent Cs]
+27.0 +20.8 69 +34 +37 очень
душно
1006.2 912.8 2
09 15.09 штиль 0 9000 м дымка 4/3 600 м
[Cb calv Ac lent Cs]
+28.1 +20.9 65 +35 +41 очень
душно
1004.1 911.3
12 15.09 штиль 0 5000 м дымка 8/3 600 м
[Sc Ac As Cs]
+24.2 +21.6 85 +31 +31 очень
душно
1005.8 911.6 +28.1
15 15.09 штиль 0 5000 м дымка 6/1 600 м
[Sc Ac und Cs]
+21.9 +20.8 93 +28 +28 душно 1009.4 914.2
18 15.09 штиль 0 4000 м дымка 6/3 600 м
[Sc Ac As Cs]
+21.1 +20.3 95 +26 +26 душно 1008.9 913.5
21 15.09 штиль 0 4000 м дымка 4/1 600 м
[Cb calv Ac und Ci ing]
+20.6 +20.0 96 +25 +25 комфорт 1008.1 912.6
00 16.09 штиль 0 200 м туман 3/3 600 м
[Sc]
+20.5 +20.2 98 +25 +25 комфорт 1008.6 913.1 +19.6
03 16.09 С 3 8000 м дымка 6/4 600 м
[Sc Ac und Cs]
+25.4 +21.2 78 +32 +38 очень
душно
1008.5 914.4
06 16.09 С 5 8000 м дымка 6/3 600 м
[Sc Ac und Cs]
+27.6 +21.5 69 +35 +41 очень
душно
1006.2 913.0
09 16.09 В 4 9000 м мгла 3/1 600 м
[Cb cap Ac trans Cs]
+27.9 +18.7 57 +33 +37 очень
душно
1003.8 910.9
12 16.09 штиль 0 6000 м дымка 1/0
[Ci ing]
+23.1 +20.5 85 +30 +30 очень
душно
1005.9 911.4 +28.0
15 16.09 штиль 0 5000 м дымка 3/0
[Ci ing]
+20.2 +19.1 93 +24 +24 комфорт 1009.2 913.5
18 16.09 штиль 0 4000 м дымка ясно +19.1 +18.3 95 +21 +21 комфорт 1009.4 913.3
21 16.09 СЗ 3 6000 м дымка 1/1 1000 м
[Sc Ac lent]
+18.8 +18.1 96 +20 +20 1009.6 913.4
00 17.09 штиль 0 200 м туман ?/? +20.5 +20.2 98 +25 +25 комфорт 1009.8 914.1 +18.3
03 17.09 С 3 8000 м дымка {туман} 3/3 600 м
[Sc]
+26.5 +20.6 70 +33 +41 очень
душно
1008.6 914.8

 

Местоположение метеостанции Дои Му Со Агромет (Таиланд): широта 16.75 долгота 98.93 высота над уровнем моря 368 м.

В архиве по умолчанию представлена погода в Дои Му Со Агромете за последнюю неделю. Архивные данные за месяц целиком и за предыдущие месяцы, начиная с января 2011 года, Вы можете получить, выбрав интересующий диапазон дат из раскрывающегося списка и нажав кнопку "Ввод!".


*Определитесь, кто Вы:
робот инопланетянин человек

Внимание! Время в таблицах - всемирное. Для получения местного времени необходимо прибавить поправку, которая равна 7 ч.

Смотрите также архив погоды в соседних городах и на ближайших метеорологических станциях:

Погода в Таке (Таиланд) (28 км)
Погода в Мэй Сот (Таиланд) (41 км)
Погода на Плотине Пумипона (Таиланд) (56 км)
Погода в Кампхэнгпхете (Таиланд) (71 км)
Погода в Умпханге (Таиланд) (81 км)
Погода в Сукхотаи (Таиланд) (100 км)
Погода в Тоене (Таиланд) (103 км)
Погода в Си Самронг Агромете (Таиланд) (110 км)
Погода в Пхаане (Мьянма) (134 км)
Погода в Пхитсанулоке (Таиланд) (142 км)

Пояснения к столбцам:

Ветер - указаны скорость ветра в м/с - средняя за 10 мин, порывы в срок и между сроками (в фигурных скобках) и направление, откуда дует ветер: С - северный, СВ - северо-восточный, В - восточный, ЮВ - юго-восточный, Ю - южный, ЮЗ - юго-западный, З - западный, СЗ - северо-западный.
Видимость - горизонтальная дальность видимости в метрах или километрах. При видимости от 1 до 10 км при отсутствии осадков обычно наблюдается дымка, при ухудшении видимости до 1 км и менее - туман. В сухую погоду видимость может ухудшаться дымом, пылью или мглою.
Явления - указаны атмосферные явления, наблюдавшиеся в срок или в последний час перед сроком; фигурными скобками обозначены явления, наблюдавшиеся между сроками (за 1-3 часа до срока); квадратными скобками обозначены град или гололедные отложения с указанием их диаметра в мм.
Облачность - указаны через наклонную черту общая и нижняя облачность в баллах и высота нижней границы облаков в метрах; квадратными скобками обозначены формы облаков: Ci - перистые, Cs - перисто-слоистые, Cc - перисто-кучевые, Ac - высококучевые, As - высокослоистые, Sc - слоисто-кучевые, Ns - слоисто-дождевые, Cu - кучевые, Cb - кучево-дождевые. Подробнее классификацию облаков см. в Атласе облаков (PDF).
T - Температура воздуха - температура, измеренная на высоте 2 м над землей.
Td - Температура точки росы - температура, при понижении до которой содержащийся в воздухе водяной пар достигнет насыщения.
f - Относительная влажность воздуха - влажноcть воздуха, измеренная на высоте 2 м над землей.
Te - Эффективная температура - температура, которую ощущает одетый по сезону человек в тени. Характеристика душности погоды. При расчете учитывается влияние влажности воздуха и скорости ветра на теплоощущения человека.
Tes - Эффективная температура на солнце - температура, которую ощущает человек, с поправкой на солнечный нагрев. Характеристика знойности погоды. Зависит от высоты солнца над горизонтом, облачности и скорости ветра. Ночью, в пасмурную погоду, а также при ветре 12 м/с и более поправка равна нулю.
P - Атмосферное давление - приведенное к уровню моря атмосферное давление.
Po - Атмосферное давление - измеренное на уровне метеостанции атмосферное давление.
Tmin - Минимальная температура - минимум температуры воздуха на высоте 2 м над землей.
Tmax - Максимальная температура - максимум температуры воздуха на высоте 2 м над землей.
R - Количество осадков - Количество выпавших осадков за период времени, мм. При наведении курсора мыши на число - период времени, за который выпало указанное количество осадков.
R24 - Количество осадков - Количество выпавших осадков за 24 часа, мм.
S - Снежный покров - Высота снежного покрова, см. При наведении курсора мыши на число - состояние снежного покрова и степень покрытия местности в баллах.